SCP
0 0 0 0 0 0 0 0 0 1 1 2 3 4 5 4 4 3 3 3 3 2 2 2 2 2 2 1 1 1 1 1 0 0 1 1 1 1 1 1 1 1 1 1
0 0 0 0 0 0 0 0 1 1 1 2 4 5 6 6 6 4 3 3 3 3 2 2 2 1 1 1 1 1 1 1 1 1 1 1 1 1 1 1 1 0 1 1
0 0 0 0 0 0 0 0 1 1 2 3 5 7 8 8 7 5 4 3 3 3 2 2 1 1 1 1 1 1 1 1 1 1 1 1 1 1 1 1 1 0 1 1
0 0 0 0 0 1 1 1 1 2 3 5 6 7 7 7 6 5 4 4 3 2 2 1 1 1 1 2 2 2 1 1 1 1 1 1 1 1 1 1 1 1 0 0
0 0 0 0 1 1 2 2 2 3 5 6 6 5 5 4 4 4 4 3 2 2 2 2 1 1 2 2 2 2 2 1 1 1 1 1 1 1 1 1 1 0 0 0
0 0 1 1 1 2 3 3 3 4 6 6 6 5 4 4 4 3 3 2 2 2 2 2 2 2 2 2 2 2 2 1 1 1 1 1 1 1 1 1 0 0 0 0
0 0 1 1 2 2 2 3 4 5 6 5 4 4 5 4 4 4 3 2 2 3 3 3 3 3 3 3 2 2 2 1 1 2 1 1 1 1 1 1 1 1 0 0
1 1 1 2 2 2 2 3 4 5 5 5 5 6 6 6 5 4 4 3 3 4 4 4 3 3 3 3 2 2 2 2 2 2 2 2 2 1 1 1 1 1 0 0
1 2 2 2 2 3 3 4 5 5 5 6 7 9 9 7 6 5 5 4 4 4 5 4 4 3 3 2 2 2 2 2 2 3 3 3 2 2 1 1 1 0 0 0
3 3 3 3 3 4 5 5 5 5 5 7 10 11 10 7 5 5 5 4 4 4 4 4 3 2 2 2 2 2 2 2 2 3 3 3 2 2 1 1 0 0 0 0
3 3 3 3 4 5 6 6 6 5 5 7 9 10 9 6 4 4 3 3 3 3 3 2 1 1 1 1 1 1 1 1 2 2 3 2 1 1 1 0 0 0 0 0
2 2 3 3 3 4 6 7 7 6 6 6 7 7 6 4 3 3 2 2 1 1 1 1 0 0 0 0 1 1 1 1 1 1 1 1 0 0 0 0 0 0 0 0
1 2 2 3 3 4 6 7 7 7 7 7 7 6 4 3 2 2 1 1 1 1 0 0 0 0 0 0 0 0 0 0 0 0 0 0 0 0 0 0 0 0 0 0
1 1 2 2 2 3 5 6 6 7 8 8 6 5 3 2 2 1 1 0 0 0 0 0 0 0 0 0 0 0 0 0 0 0 0 0 0 0 0 0 0 0 0 0
1 1 1 2 2 2 3 4 5 6 7 6 5 3 2 2 1 1 1 0 0 0 0 0 0 0 0 0 0 0 0 0 0 0 0 0 0 0 0 0 0 0 0 0
1 1 1 1 1 1 1 2 3 4 4 3 2 1 1 1 1 1 0 0 0 0 0 0 0 0 0 0 0 0 0 0 0 0 0 0 0 0 0 0 0 0 0 0
0 0 0 0 1 1 1 1 1 2 2 1 1 1 1 1 1 1 0 0 0 0 0 0 0 0 0 0 0 0 0 0 0 0 0 0 0 0 0 0 0 0 0 0
0 0 0 0 0 1 1 1 1 1 1 1 1 1 1 1 0 0 0 0 0 0 0 0 0 0 0 0 0 0 0 0 0 0 0 0 0 0 0 0 0 0 0 0
0 0 0 0 0 1 1 1 1 2 1 1 1 1 1 0 0 0 0 0 0 0 0 0 0 0 0 0 0 0 0 0 0 0 0 0 0 0 0 0 0 0 0 0
0 0 1 1 1 1 1 1 1 2 2 1 1 1 0 0 0 0 0 0 0 0 0 0 0 0 0 0 0 0 0 0 0 0 0 0 0 0 0 0 0 0 0 0
0 0 1 1 1 1 1 1 1 1 1 1 0 0 0 0 0 0 0 0 0 0 0 0 0 0 0 0 0 0 0 0 0 0 0 0 0 0 0 0 0 0 0 0
0 0 1 1 1 1 1 1 1 1 1 0 0 0 0 0 0 0 0 0 0 0 0 0 0 0 0 0 0 0 0 0 0 0 0 0 0 0 0 0 0 0 0 0
0 0 1 1 1 1 1 1 0 0 0 0 0 0 0 0 0 0 0 0 0 0 0 0 0 0 0 0 0 0 0 0 0 0 0 0 0 0 0 0 0 0 0 0
0 1 1 1 1 0 0 0 0 0 0 0 0 0 0 0 0 0 0 0 0 0 0 0 0 0 0 0 0 0 0 0 0 0 0 0 0 0 0 0 0 0 0 0
1 1 1 0 0 0 0 0 0 0 0 0 0 0 0 0 0 0 0 0 0 0 0 0 0 0 0 0 0 0 0 0 0 0 0 0 0 0 0 0 0 0 0 0
1 1 0 0 0 0 0 0 0 0 0 0 0 0 0 0 0 0 0 0 0 0 0 0 0 0 0 0 0 0 0 0 0 0 0 0 0 0 0 0 0 0 0 0
1 0 0 0 0 0 0 0 0 0 0 0 0 0 0 0 0 0 0 0 0 0 0 0 0 0 0 0 0 0 0 0 0 0 0 0 0 0 0 0 0 0 0 0
Wind_Speed
7 6 3 2 3 3 5 8 9 9 11 13 13 12 11 10 9 9 7 7 7 7 6 6 5 5 5 5 5 5 5 5 4 4 4 3 3 3 4 4 4 4 4 4
1 1 1 1 4 3 4 4 5 7 6 7 9 9 10 11 12 11 8 8 8 8 7 7 7 6 6 5 5 5 5 5 4 5 5 4 4 4 5 5 5 5 5 5
1 1 3 3 4 3 4 4 8 9 9 10 9 12 12 11 11 11 10 8 8 7 7 6 6 7 7 6 5 6 6 5 5 5 5 5 5 5 5 5 5 6 5 6
2 2 4 9 5 3 1 2 3 7 11 15 12 8 6 8 11 11 10 8 7 7 6 5 5 5 6 6 6 6 6 6 6 6 6 6 6 5 5 5 5 5 6 6
4 3 4 6 4 1 2 2 1 9 12 10 10 8 4 3 8 9 10 9 7 6 7 6 6 6 7 6 6 6 5 5 5 6 7 6 6 5 5 6 6 6 6 7
4 3 5 7 5 1 6 1 1 8 13 12 9 6 3 4 8 8 8 7 8 7 7 6 5 6 8 7 6 5 5 5 5 6 7 7 6 6 6 7 7 7 7 7
4 3 6 6 4 3 4 7 4 7 10 9 5 6 7 8 8 8 8 9 9 8 7 5 5 7 7 6 5 5 5 5 5 5 6 7 7 6 7 8 8 8 8 7
4 4 7 5 2 4 6 4 6 7 7 9 9 11 10 10 9 8 9 9 9 8 6 4 5 7 6 5 4 5 6 6 5 5 6 6 8 7 8 8 9 8 8 7
6 6 5 2 3 4 6 8 6 7 8 12 13 11 10 9 9 8 8 8 7 8 6 4 3 5 6 4 5 6 7 6 5 6 6 6 7 8 7 7 7 6 6 7
1 1 1 3 5 5 5 7 7 8 10 11 12 11 10 9 8 8 7 7 7 7 7 5 3 4 4 5 5 7 7 6 6 6 7 6 5 5 6 6 7 7 7 7
2 1 4 5 3 5 7 9 10 8 8 10 13 11 10 9 8 7 6 5 6 6 6 5 4 4 4 5 7 8 7 7 6 7 7 7 6 5 4 4 5 7 6 7
3 4 3 1 1 4 9 8 9 11 9 8 10 11 10 8 6 6 6 6 6 5 5 5 5 4 3 4 6 8 8 7 6 6 6 7 8 8 13 10 11 11 10 9
4 3 3 3 3 5 7 7 9 10 10 10 9 10 9 8 6 6 6 6 6 5 5 5 5 4 4 4 6 7 8 7 6 6 6 6 6 8 8 9 13 12 11 12
4 5 4 3 4 6 8 8 9 10 10 9 9 9 9 8 7 7 6 6 7 7 6 6 6 5 4 5 7 8 8 9 8 6 6 6 6 6 7 8 7 5 7 10
3 4 6 6 7 7 8 9 10 9 9 8 8 9 9 9 8 7 6 6 7 7 6 6 6 5 5 6 8 8 7 6 6 6 6 6 6 6 6 7 7 6 5 5
5 6 8 8 8 7 8 9 9 7 7 8 7 7 8 8 8 7 6 6 7 7 6 6 6 5 5 7 8 7 6 11 9 7 7 6 6 6 6 6 6 6 5 4
7 6 6 7 7 7 7 7 8 8 8 8 8 8 8 8 8 7 6 5 6 6 6 6 6 5 6 6 7 5 6 8 11 8 6 6 6 6 6 6 6 5 4 5
8 8 8 9 8 8 8 8 8 8 8 9 10 9 8 8 8 7 7 7 7 7 5 5 6 6 6 6 5 5 5 5 5 6 6 6 6 6 6 6 6 6 4 4
7 8 8 9 9 8 8 8 8 8 8 9 9 9 8 7 7 7 7 7 8 7 4 5 8 6 5 6 6 4 5 6 5 5 5 7 7 5 5 5 5 5 5 4
7 7 9 9 9 9 8 9 9 8 8 8 9 9 9 8 7 7 7 5 3 4 5 6 6 5 5 5 6 4 5 5 5 5 5 5 5 5 5 6 6 6 5 5
8 9 10 10 9 8 8 9 10 9 8 9 9 9 9 8 7 7 6 5 2 4 6 7 5 4 4 5 6 4 4 4 5 5 5 5 5 5 6 6 6 6 5 5
8 9 10 10 10 8 7 8 9 10 9 9 9 9 8 8 7 5 4 4 4 6 5 4 3 4 5 6 4 4 4 5 4 4 4 5 5 5 5 6 6 6 5 5
7 8 10 10 10 10 8 7 8 9 9 9 9 8 7 6 5 5 4 3 4 6 4 3 5 7 7 4 3 4 4 5 5 5 5 5 5 5 5 6 5 5 5 5
8 9 9 9 10 10 9 7 7 7 7 7 7 7 7 6 4 2 4 6 7 7 4 5 7 7 5 3 3 3 3 4 4 4 4 4 5 5 5 5 6 5 6 6
8 9 9 10 9 7 7 8 8 7 7 5 6 6 5 4 5 4 4 5 7 6 3 4 5 5 3 2 3 3 3 3 4 4 4 4 5 5 5 5 6 6 5 5
8 7 6 6 6 5 5 5 5 5 5 5 4 4 4 4 5 4 4 5 6 5 3 2 2 2 2 2 3 3 3 3 4 4 4 5 5 5 5 5 7 6 6 6
8 7 6 6 5 5 4 4 4 4 5 5 5 4 4 4 4 4 5 4 3 3 2 2 2 2 2 2 2 2 2 2 3 3 4 4 4 4 5 6 5 5 5 5
Wind_Direction
193 199 183 220 265 232 185 188 184 202 183 192 185 170 163 164 154 152 159 161 158 153 147 144 144 145 144 141 141 140 136 137 146 140 133 125 121 117 113 116 121 118 117 118
200 219 92 293 284 281 243 196 172 152 194 192 173 158 159 160 154 154 163 163 156 150 148 152 155 152 147 143 142 135 133 136 131 122 119 115 109 103 98 96 98 99 102 108
218 328 51 279 251 246 261 225 167 181 194 160 162 171 168 161 158 157 158 154 151 152 153 155 155 152 152 149 139 132 132 132 130 125 118 113 113 104 102 97 94 93 92 94
136 85 216 243 249 203 218 273 183 162 158 159 157 149 148 157 155 153 147 141 144 149 146 145 141 136 136 135 136 133 131 134 133 127 123 117 112 110 105 100 98 95 93 95
120 167 262 290 292 197 135 337 109 136 140 132 119 90 69 148 149 148 145 145 146 148 137 133 134 131 121 119 122 123 128 136 138 137 133 128 124 121 114 108 99 94 96 97
128 154 218 247 274 217 103 7 284 138 142 143 128 125 186 161 132 126 125 129 128 123 116 124 134 126 120 123 121 125 131 133 133 135 133 130 128 121 112 106 103 100 92 90
157 192 246 254 286 63 122 211 199 143 145 146 146 159 151 127 114 116 120 119 116 114 115 122 126 123 124 127 132 134 124 116 115 123 127 128 123 116 113 109 104 98 92 84
158 181 242 279 65 146 189 167 137 130 133 128 119 114 114 113 110 110 110 111 112 112 111 110 117 123 124 128 129 122 117 112 110 115 122 125 122 118 117 117 111 106 100 91
183 204 236 259 140 145 136 127 130 132 131 129 125 125 123 116 115 113 111 109 108 111 107 96 103 124 133 135 129 124 120 119 116 113 110 117 124 127 124 122 120 119 115 108
75 9 41 74 88 90 108 118 125 130 131 131 129 130 126 121 119 114 111 112 110 110 109 101 91 94 119 128 129 127 126 124 120 117 110 103 104 115 125 131 132 129 127 123
75 63 42 32 61 111 103 100 104 107 116 127 126 125 124 122 121 116 111 109 111 113 118 117 109 106 110 127 130 126 124 122 118 115 113 103 88 77 98 96 133 137 138 137
200 222 155 195 315 106 108 109 116 114 105 110 120 121 118 117 118 116 113 109 108 108 116 120 117 111 107 126 134 133 130 126 123 121 117 114 109 87 63 78 88 97 110 120
186 174 131 123 77 75 93 108 111 112 117 117 111 114 116 117 112 109 109 109 110 110 110 112 111 109 111 122 127 128 129 127 121 121 122 122 120 119 108 77 72 82 98 109
134 111 97 96 96 86 91 94 95 96 99 107 113 114 112 110 111 112 115 116 113 110 106 105 104 103 105 111 114 116 118 121 122 123 122 120 118 118 119 122 114 89 82 102
132 128 134 124 110 106 104 103 100 101 106 106 111 115 119 121 121 119 117 116 114 111 110 111 109 105 105 110 111 115 117 121 121 121 119 118 118 116 115 117 119 119 111 103
137 125 126 128 130 127 119 120 118 123 125 122 119 119 123 124 121 119 118 122 124 123 120 118 117 119 117 116 114 114 117 127 127 125 123 123 123 124 126 128 129 132 138 143
138 144 145 146 144 141 137 135 132 133 129 125 124 119 118 118 116 115 116 117 118 119 122 123 123 122 119 120 120 122 123 130 131 127 128 131 132 134 135 137 140 143 152 163
163 165 162 156 150 143 137 132 133 135 134 134 131 127 128 131 131 128 125 119 112 104 106 120 125 126 125 127 125 124 125 128 133 133 132 132 134 136 139 142 147 147 148 154
150 148 142 140 141 140 139 138 138 136 134 136 136 137 135 132 130 128 126 124 125 125 132 131 131 125 125 132 129 126 129 130 130 131 133 138 138 140 145 148 150 152 155 156
140 134 127 125 126 133 137 138 138 135 135 135 131 128 126 126 128 127 124 122 137 149 147 140 135 134 139 144 137 131 132 135 138 138 137 142 147 152 156 159 159 159 163 169
134 130 126 124 123 125 133 136 135 133 132 131 132 134 132 129 128 127 126 123 135 136 137 135 133 140 145 147 144 142 142 143 147 151 153 154 156 156 159 162 166 169 173 178
123 124 126 125 122 118 120 125 129 130 130 129 129 129 128 126 125 119 120 137 148 139 133 134 139 146 144 140 141 145 151 153 155 154 155 155 155 156 160 165 170 176 179 183
113 114 118 123 123 119 114 116 124 128 131 133 135 136 134 135 138 136 136 148 143 138 132 137 142 141 139 133 138 142 146 146 149 153 157 157 159 162 165 170 174 176 178 183
108 111 115 117 115 116 120 121 118 118 121 126 133 136 135 133 126 127 136 144 144 136 133 142 143 139 135 128 130 133 144 153 158 162 165 165 168 170 172 174 179 183 185 185
108 110 113 115 115 118 120 119 115 114 117 118 122 126 132 138 140 143 138 140 143 136 133 143 145 141 132 137 145 150 162 178 176 171 173 174 177 178 179 179 181 183 186 190
105 105 105 108 113 116 117 117 119 125 125 123 122 126 125 123 125 127 130 141 148 145 145 153 158 156 155 157 162 162 168 175 176 177 178 181 183 182 184 189 190 190 192 193
94 94 95 94 93 100 107 111 113 117 123 127 125 126 128 130 132 136 138 144 153 159 163 168 168 169 173 174 182 188 186 183 183 185 184 182 180 183 189 191 191 191 190 190